Weather History for Cartersville, GA

Change the Weather History Date:

Sunday, September 8, 2013

  Actual Average Record
Temperature  
Mean Temperature 76 °F 74 °F  
Max Temperature 91 °F 86 °F 93 °F (2010)
Min Temperature 61 °F 63 °F 57 °F (2005)
Degree Days  
Heating Degree Days 0 0  
Month to date heating degree days 0 0  
Since 1 July heating degree days 0 0  
Cooling Degree Days 11 9  
Month to date cooling degree days 90 82  
Year to date cooling degree days 1268 1347  
Growing Degree Days 25 (Base 50)    
Moisture  
Dew Point 67 °F    
Average Humidity 77    
Maximum Humidity 100    
Minimum Humidity 53    
Precipitation  
Precipitation 0.00 in 0.13 in 2.86 in (1950)
Month to date precipitation 1.38 0.72  
Year to date precipitation 31.41 35.31  
Sea Level Pressure  
Sea Level Pressure 29.99 in    
Wind  
Wind Speed 1 mph (NNE)    
Max Wind Speed 8 mph    
Max Gust Speed 12 mph    
Visibility 7 miles    
Events Thunderstorm    
T = Trace of Precipitation, MM = Missing Value Source: NWS Daily Summary

Daily Weather History Graph

Daily Weather History Graph

Search for Another Location

Airport:

Trip Planner

Search our weather history database for the weather conditions in past years. The results will help you decide how hot, cold, wet, or windy it might be!

Date:

Astronomy

Sep. 08, 2013 Rise Set
Actual Time 7:17 AM EDT 7:55 PM EDT
Civil Twilight 6:52 AM EDT 8:20 PM EDT
Nautical Twilight 6:22 AM EDT 8:50 PM EDT
Astronomical Twilight 5:52 AM EDT 9:20 PM EDT
Moon 10:23 AM EDT (9/8) 9:42 PM EDT (9/8)
Length of Visible Light 13h 28m
Length of Day
12h 37m
Waxing Crescent, 11% of the Moon is Illuminated
Sep 8
Waxing Crescent
Sep 12
First Quarter
Sep 19
Full
Sep 26
Last Quarter
Oct 4
New

Hourly Weather History & Observations

Time (EDT) Temp. Heat Index Dew Point Humidity Pressure Visibility Wind Dir Wind Speed Gust Speed Precip Events Conditions
12:53 AM 64.9 °F - 64.0 °F 97% 30.02 in 4.0 mi Calm Calm - N/A   Clear
1:53 AM 64.9 °F - 64.0 °F 97% 30.01 in 4.0 mi Calm Calm - N/A   Clear
2:53 AM 63.0 °F - 62.1 °F 97% 30.00 in 4.0 mi Calm Calm - N/A   Clear
3:53 AM 63.0 °F - 62.1 °F 97% 29.99 in 4.0 mi Calm Calm - N/A   Clear
4:53 AM 63.0 °F - 61.0 °F 93% 29.98 in 4.0 mi Calm Calm - N/A   Clear
5:53 AM 62.1 °F - 60.1 °F 93% 29.98 in 5.0 mi Calm Calm - N/A   Clear
6:53 AM 62.1 °F - 61.0 °F 96% 30.00 in 5.0 mi Calm Calm - N/A   Clear
7:53 AM 62.1 °F - 61.0 °F 96% 30.01 in 5.0 mi Calm Calm - N/A   Partly Cloudy
8:18 AM 64.4 °F - 62.6 °F 94% 30.05 in 2.5 mi Calm Calm - N/A   Partly Cloudy
8:30 AM 66.2 °F - 64.4 °F 94% 30.05 in 4.0 mi Calm Calm - N/A   Clear
8:53 AM 69.1 °F - 66.9 °F 93% 30.02 in 4.0 mi Calm Calm - N/A   Clear
9:53 AM 72.0 °F - 68.0 °F 87% 30.02 in 7.0 mi Calm Calm - N/A   Clear
10:53 AM 78.1 °F - 69.1 °F 74% 30.01 in 9.0 mi Calm Calm - N/A   Clear
11:53 AM 82.0 °F 84.9 °F 68.0 °F 62% 30.00 in 10.0 mi Calm Calm - N/A   Clear
12:53 PM 86.0 °F 89.4 °F 68.0 °F 55% 30.01 in 10.0 mi Calm Calm - N/A   Clear
1:53 PM 87.1 °F 92.0 °F 70.0 °F 57% 29.99 in 10.0 mi North 3.5 mph - N/A   Mostly Cloudy
2:53 PM 87.1 °F 90.6 °F 68.0 °F 53% 29.97 in 10.0 mi NNE 5.8 mph - N/A   Mostly Cloudy
3:53 PM 88.0 °F 91.4 °F 68.0 °F 51% 29.95 in 10.0 mi NNE 4.6 mph - N/A   Mostly Cloudy
4:53 PM 84.9 °F 88.2 °F 68.0 °F 57% 29.94 in 10.0 mi Calm Calm - N/A   Partly Cloudy
5:39 PM 86.0 °F 90.4 °F 69.8 °F 58% 29.97 in 10.0 mi Calm Calm - N/A Thunderstorm Clear
5:53 PM 87.1 °F 91.3 °F 69.1 °F 55% 29.94 in 10.0 mi Calm Calm - N/A   Clear
6:53 PM 84.9 °F 89.4 °F 70.0 °F 61% 29.94 in 9.0 mi Calm Calm - N/A   Clear
7:53 PM 78.1 °F - 73.0 °F 84% 29.95 in 7.0 mi Calm Calm - N/A   Clear
8:53 PM 73.9 °F - 71.1 °F 91% 29.95 in 6.0 mi Calm Calm - N/A   Clear
9:53 PM 72.0 °F - 70.0 °F 93% 29.96 in 6.0 mi Calm Calm - N/A   Clear
10:53 PM 71.1 °F - 69.1 °F 93% 29.98 in 4.0 mi Calm Calm - N/A   Clear
11:53 PM 70.0 °F - 69.1 °F 97% 29.98 in 4.0 mi Calm Calm - N/A   Clear